sat.trackr.live / text

‹ back to catalog

GSAT-15 (GAGAN/PRN 139)

NORAD 41028 · 2015-065A

PAYLOAD ACTIVE UNKNOWN

§ Identity

Operator
Country
IND
Launch date
2015-11-10
Launch site
FRGUI
Launch vehicle
Mass (kg)
RCS (m²)
44.21

Purposes: comms, nav

External: N2YO · Heavens-Above · Gunter

§ Orbital elements

Epoch: 2026-05-25T02:28:37.599744Z

Period
1,436.07 min
Inclination
0.0087°
Eccentricity
0.0004041
Mean motion
1.00273404 rev/d
Perigee alt
35,769.1 km
Apogee alt
35,803.2 km
Semi-major
42,164.3 km
B*
0.0000e+0
RAAN
245.3849°
Arg perigee
178.3937°
Mean anomaly
309.5779°
Rev number
3,856

§ Raw data

GSAT-15 (GAGAN/PRN 139)1 41028U 15065A   26145.10321296 -.00000261  00000+0  00000+0 0  99922 41028   0.0087 245.3849 0004041 178.3937 309.5779  1.00273404 38567

JSON: /api/v1/satellites/41028 · /tle

For live sub-satellite position, see the globe view (requires WebGL).

§ Visibility from observer

Set your observer location to see the next 7 days of passes ≥ 10°. The values pass through the URL so the page stays shareable.

No JS? Fill the form by hand. The geolocation button needs JavaScript.